RYR79MY LEPA-LIRP

Flight info

Callsign RYR79MY
Flight time 1h 22m
Altitude 34000
Route MORSS DCT ISTER UN851 LUNOR DCT NESUL UN851 SOVAG DCT OKBON DCT KONER
Aircraft A320/M-SDE3FGHIRWY/LB1

Departure

Time 2026-05-07 16:15
Airport Palma de Mallorca Airport (LEPA)

Arrival

Time 2026-05-07 17:37
Airport Pisa International Airport (LIRP)
Time Latitude Longitude Altitude Speed Heading
2026-05-07 15:41 39.54903 2.73802 39 ft 0 kts 249°
2026-05-07 15:59 39.54903 2.73804 38 ft 2 kts 249°
2026-05-07 15:59 39.54911 2.73831 38 ft 3 kts 249°
2026-05-07 16:00 39.54919 2.73858 38 ft 3 kts 249°
2026-05-07 16:00 39.54926 2.73880 38 ft 3 kts 237°
2026-05-07 16:00 39.54940 2.73900 38 ft 3 kts 205°
2026-05-07 16:00 39.54960 2.73906 36 ft 3 kts 169°
2026-05-07 16:01 39.54979 2.73897 38 ft 3 kts 149°
2026-05-07 16:01 39.54998 2.73882 36 ft 3 kts 149°
2026-05-07 16:01 39.55006 2.73876 35 ft 0 kts 149°
2026-05-07 16:10 39.55002 2.73879 38 ft 3 kts 149°
2026-05-07 16:10 39.54936 2.73931 38 ft 16 kts 149°
2026-05-07 16:10 39.54845 2.73999 38 ft 13 kts 161°
2026-05-07 16:10 39.54786 2.73945 38 ft 7 kts 214°
2026-05-07 16:11 39.54739 2.73958 37 ft 8 kts 156°
2026-05-07 16:11 39.54698 2.73933 38 ft 7 kts 237°
2026-05-07 16:11 39.54659 2.73855 38 ft 15 kts 238°
2026-05-07 16:11 39.54593 2.73710 38 ft 23 kts 239°
2026-05-07 16:12 39.54505 2.73526 37 ft 25 kts 238°
2026-05-07 16:12 39.54446 2.73401 38 ft 12 kts 239°
2026-05-07 16:12 39.54402 2.73309 38 ft 12 kts 238°
2026-05-07 16:12 39.54358 2.73217 38 ft 12 kts 238°
2026-05-07 16:13 39.54303 2.73155 38 ft 10 kts 164°
2026-05-07 16:13 39.54267 2.73233 38 ft 11 kts 93°
2026-05-07 16:13 39.54268 2.73330 38 ft 11 kts 89°
2026-05-07 16:13 39.54268 2.73429 38 ft 11 kts 90°
2026-05-07 16:14 39.54292 2.73521 38 ft 11 kts 58°
2026-05-07 16:14 39.54361 2.73667 38 ft 43 kts 59°
2026-05-07 16:14 39.54631 2.74237 37 ft 102 kts 58°
2026-05-07 16:14 39.55090 2.75208 37 ft 148 kts 58°
2026-05-07 16:15 39.55682 2.76456 312 ft 166 kts 60°
2026-05-07 16:15 39.56265 2.77732 1035 ft 163 kts 62°
2026-05-07 16:15 39.56843 2.79040 1474 ft 178 kts 61°
2026-05-07 16:15 39.57506 2.80513 1741 ft 202 kts 60°
2026-05-07 16:16 39.58224 2.82090 2451 ft 203 kts 61°
2026-05-07 16:16 39.58948 2.83679 3183 ft 207 kts 61°
2026-05-07 16:16 39.59691 2.85305 3918 ft 211 kts 61°
2026-05-07 16:16 39.60447 2.86956 4679 ft 214 kts 61°
2026-05-07 16:17 39.61212 2.88625 5406 ft 217 kts 60°
2026-05-07 16:17 39.61990 2.90322 6239 ft 220 kts 60°
2026-05-07 16:17 39.62786 2.92100 6813 ft 240 kts 62°
2026-05-07 16:17 39.63645 2.94080 7310 ft 263 kts 62°
2026-05-07 16:18 39.64556 2.96195 8114 ft 271 kts 63°
2026-05-07 16:18 39.65472 2.98325 9021 ft 276 kts 63°
2026-05-07 16:18 39.66417 3.00519 9892 ft 282 kts 63°
2026-05-07 16:18 39.67383 3.02762 10698 ft 287 kts 64°
2026-05-07 16:19 39.68382 3.05084 11150 ft 306 kts 63°
2026-05-07 16:19 39.69459 3.07591 11428 ft 329 kts 63°
2026-05-07 16:19 39.70610 3.10259 12132 ft 338 kts 63°
2026-05-07 16:19 39.71762 3.12919 12863 ft 345 kts 63°
2026-05-07 16:20 39.72864 3.15756 13467 ft 350 kts 73°
2026-05-07 16:20 39.73373 3.18809 14231 ft 352 kts 82°
2026-05-07 16:20 39.73788 3.21974 15070 ft 358 kts 83°
2026-05-07 16:20 39.74209 3.25191 15825 ft 365 kts 83°
2026-05-07 16:21 39.74639 3.28465 16503 ft 370 kts 82°
2026-05-07 16:21 39.75073 3.31781 17079 ft 374 kts 82°
2026-05-07 16:21 39.75509 3.35149 17694 ft 382 kts 83°
2026-05-07 16:21 39.75949 3.38562 18342 ft 386 kts 83°
2026-05-07 16:22 39.76395 3.42028 18800 ft 391 kts 83°
2026-05-07 16:22 39.76847 3.45536 19325 ft 395 kts 83°
2026-05-07 16:22 39.77303 3.49078 19862 ft 399 kts 83°
2026-05-07 16:22 39.77763 3.52653 20387 ft 403 kts 83°
2026-05-07 16:23 39.78225 3.56268 20909 ft 406 kts 84°
2026-05-07 16:23 39.78681 3.59857 21409 ft 410 kts 84°
2026-05-07 16:23 39.79149 3.63535 21894 ft 413 kts 84°
2026-05-07 16:23 39.79617 3.67235 22382 ft 416 kts 84°
2026-05-07 16:24 39.80084 3.70966 22859 ft 420 kts 84°
2026-05-07 16:24 39.80558 3.74728 23323 ft 423 kts 84°
2026-05-07 16:24 39.81037 3.78520 23736 ft 426 kts 84°
2026-05-07 16:24 39.81519 3.82342 24095 ft 430 kts 84°
2026-05-07 16:25 39.82002 3.86198 24424 ft 435 kts 85°
2026-05-07 16:25 39.82487 3.90103 24761 ft 439 kts 85°
2026-05-07 16:25 39.82974 3.94040 25100 ft 443 kts 85°
2026-05-07 16:25 39.83463 3.98019 25438 ft 446 kts 85°
2026-05-07 16:26 39.83953 4.02009 25770 ft 449 kts 85°
2026-05-07 16:26 39.84449 4.06035 25921 ft 451 kts 85°
2026-05-07 16:26 39.84949 4.10070 25949 ft 452 kts 85°
2026-05-07 16:26 39.85279 4.12746 25948 ft 452 kts 85°
2026-05-07 16:27 39.85940 4.18145 25948 ft 452 kts 85°
2026-05-07 16:27 39.86492 4.22179 25941 ft 455 kts 80°
2026-05-07 16:27 39.87307 4.26181 25949 ft 458 kts 78°
2026-05-07 16:27 39.88141 4.30202 26216 ft 462 kts 79°
2026-05-07 16:28 39.88979 4.34250 26586 ft 464 kts 79°
2026-05-07 16:28 39.89825 4.38324 26911 ft 468 kts 79°
2026-05-07 16:28 39.90665 4.42369 27238 ft 471 kts 79°
2026-05-07 16:28 39.91517 4.46499 27560 ft 474 kts 79°
2026-05-07 16:29 39.92376 4.50654 27874 ft 477 kts 78°
2026-05-07 16:29 39.93543 4.54737 28175 ft 485 kts 68°
2026-05-07 16:29 39.95236 4.58590 28471 ft 493 kts 57°
2026-05-07 16:29 39.97077 4.62369 28727 ft 494 kts 68°
2026-05-07 16:30 39.98080 4.66596 29008 ft 488 kts 84°
2026-05-07 16:30 39.98567 4.70980 29292 ft 491 kts 85°
2026-05-07 16:30 39.99410 4.75340 29579 ft 500 kts 73°
2026-05-07 16:30 40.00867 4.79490 29987 ft 504 kts 63°
2026-05-07 16:31 40.02770 4.83347 30357 ft 506 kts 56°
2026-05-07 16:31 40.04903 4.86995 30731 ft 507 kts 51°
2026-05-07 16:31 40.07369 4.90267 31114 ft 507 kts 44°
2026-05-07 16:31 40.09920 4.93455 31511 ft 506 kts 44°
2026-05-07 16:32 40.12463 4.96631 31892 ft 505 kts 44°
2026-05-07 16:32 40.14967 4.99759 32300 ft 505 kts 44°
2026-05-07 16:32 40.17509 5.02938 32660 ft 506 kts 44°
2026-05-07 16:32 40.20047 5.06116 32991 ft 506 kts 45°
2026-05-07 16:33 40.22590 5.09309 33357 ft 507 kts 45°
2026-05-07 16:33 40.25133 5.12506 33731 ft 507 kts 45°
2026-05-07 16:33 40.27682 5.15707 33918 ft 508 kts 45°
2026-05-07 16:34 40.32786 5.22118 33951 ft 508 kts 45°
2026-05-07 16:34 40.37884 5.28538 33946 ft 508 kts 45°
2026-05-07 16:35 40.42973 5.34979 33927 ft 509 kts 45°
2026-05-07 16:35 40.48087 5.41458 33950 ft 511 kts 45°
2026-05-07 16:36 40.53196 5.47951 33948 ft 512 kts 45°
2026-05-07 16:36 40.58314 5.54457 33950 ft 512 kts 45°
2026-05-07 16:37 40.63434 5.60981 33949 ft 512 kts 45°
2026-05-07 16:37 40.68544 5.67508 33952 ft 512 kts 45°
2026-05-07 16:38 40.73653 5.74049 33948 ft 510 kts 45°
2026-05-07 16:38 40.78723 5.80572 33953 ft 510 kts 45°
2026-05-07 16:39 40.83782 5.87087 33952 ft 511 kts 45°
2026-05-07 16:39 40.88857 5.93628 33956 ft 511 kts 45°
2026-05-07 16:40 40.93942 6.00194 33955 ft 511 kts 45°
2026-05-07 16:40 40.99019 6.06778 33954 ft 512 kts 45°
2026-05-07 16:41 41.04103 6.13384 33956 ft 511 kts 45°
2026-05-07 16:41 41.09173 6.19969 33960 ft 510 kts 45°
2026-05-07 16:42 41.13380 6.25448 33958 ft 510 kts 45°
2026-05-07 16:42 41.18440 6.32060 33982 ft 511 kts 44°
2026-05-07 16:43 41.23522 6.38721 33960 ft 515 kts 44°
2026-05-07 16:43 41.28622 6.45416 33961 ft 515 kts 44°
2026-05-07 16:44 41.33708 6.52104 33959 ft 512 kts 45°
2026-05-07 16:44 41.38763 6.58777 33966 ft 513 kts 44°
2026-05-07 16:45 41.43828 6.65473 33965 ft 518 kts 44°
2026-05-07 16:45 41.48975 6.72297 33961 ft 518 kts 44°
2026-05-07 16:46 41.54078 6.79082 33961 ft 518 kts 44°
2026-05-07 16:46 41.59187 6.85887 33953 ft 519 kts 44°
2026-05-07 16:47 41.64309 6.92707 33967 ft 520 kts 44°
2026-05-07 16:47 41.69385 6.99511 33967 ft 520 kts 44°
2026-05-07 16:48 41.74492 7.06359 33962 ft 520 kts 44°
2026-05-07 16:48 41.79615 7.13239 33962 ft 520 kts 43°
2026-05-07 16:49 41.84719 7.20114 33967 ft 520 kts 43°
2026-05-07 16:49 41.89814 7.27009 33972 ft 520 kts 43°
2026-05-07 16:50 41.94907 7.33911 33969 ft 520 kts 43°
2026-05-07 16:50 41.99999 7.40812 33968 ft 519 kts 43°
2026-05-07 16:51 42.05069 7.47698 33973 ft 519 kts 43°
2026-05-07 16:51 42.10138 7.54616 33973 ft 519 kts 43°
2026-05-07 16:52 42.15195 7.61540 33964 ft 516 kts 44°
2026-05-07 16:52 42.20210 7.68416 33976 ft 511 kts 43°
2026-05-07 16:53 42.25152 7.75206 33973 ft 510 kts 43°
2026-05-07 16:53 42.30160 7.82088 33974 ft 510 kts 43°
2026-05-07 16:54 42.35090 7.88896 33997 ft 510 kts 43°
2026-05-07 16:54 42.40073 7.95802 33976 ft 510 kts 43°
2026-05-07 16:55 42.44990 8.02626 33976 ft 509 kts 43°
2026-05-07 16:55 42.49939 8.09494 33975 ft 509 kts 43°
2026-05-07 16:56 42.54878 8.16339 33974 ft 508 kts 42°
2026-05-07 16:56 42.62337 8.26605 32761 ft 512 kts 42°
2026-05-07 16:57 42.64840 8.30053 31989 ft 513 kts 42°
2026-05-07 16:57 42.67333 8.33489 31477 ft 508 kts 42°
2026-05-07 16:57 42.69798 8.36891 30971 ft 502 kts 42°
2026-05-07 16:57 42.72234 8.40260 30527 ft 497 kts 42°
2026-05-07 16:58 42.74632 8.43627 29991 ft 494 kts 42°
2026-05-07 16:58 42.77003 8.46984 29398 ft 490 kts 43°
2026-05-07 16:58 42.79351 8.50308 28867 ft 484 kts 43°
2026-05-07 16:58 42.81675 8.53591 28352 ft 479 kts 43°
2026-05-07 16:59 42.83973 8.56845 27847 ft 474 kts 44°
2026-05-07 16:59 42.85896 8.60480 27381 ft 473 kts 62°
2026-05-07 16:59 42.87189 8.64593 26896 ft 469 kts 68°
2026-05-07 16:59 42.88352 8.68698 26098 ft 460 kts 69°
2026-05-07 17:00 42.89487 8.72744 25274 ft 453 kts 68°
2026-05-07 17:00 42.90601 8.76737 24663 ft 449 kts 69°
2026-05-07 17:00 42.91703 8.80689 24316 ft 443 kts 69°
2026-05-07 17:00 42.92791 8.84597 23957 ft 438 kts 69°
2026-05-07 17:01 42.93857 8.88421 23593 ft 434 kts 69°
2026-05-07 17:01 42.94925 8.92255 23181 ft 430 kts 69°
2026-05-07 17:01 42.95984 8.96053 22774 ft 426 kts 69°
2026-05-07 17:01 42.97033 8.99808 22347 ft 422 kts 69°
2026-05-07 17:02 42.98078 9.03539 21915 ft 419 kts 69°
2026-05-07 17:02 42.99116 9.07237 21500 ft 415 kts 69°
2026-05-07 17:02 43.00146 9.10901 21064 ft 411 kts 69°
2026-05-07 17:02 43.01165 9.14537 20632 ft 408 kts 69°
2026-05-07 17:03 43.02176 9.18141 20204 ft 404 kts 69°
2026-05-07 17:03 43.03184 9.21721 19766 ft 401 kts 69°
2026-05-07 17:03 43.04182 9.25255 19345 ft 397 kts 69°
2026-05-07 17:03 43.05175 9.28761 18921 ft 393 kts 69°
2026-05-07 17:04 43.06160 9.32222 18507 ft 390 kts 69°
2026-05-07 17:04 43.07138 9.35649 18065 ft 386 kts 69°
2026-05-07 17:04 43.08106 9.39029 17336 ft 378 kts 69°
2026-05-07 17:04 43.09062 9.42354 16526 ft 373 kts 69°
2026-05-07 17:05 43.10005 9.45623 15756 ft 366 kts 69°
2026-05-07 17:05 43.10938 9.48840 15009 ft 360 kts 69°
2026-05-07 17:05 43.11855 9.51993 14286 ft 353 kts 69°
2026-05-07 17:05 43.12759 9.55086 13582 ft 348 kts 69°
2026-05-07 17:06 43.13652 9.58135 12817 ft 343 kts 69°
2026-05-07 17:06 43.14535 9.61153 12043 ft 339 kts 69°
2026-05-07 17:06 43.15405 9.64146 11500 ft 338 kts 69°
2026-05-07 17:06 43.16402 9.67046 11066 ft 336 kts 58°
2026-05-07 17:07 43.17718 9.69674 10622 ft 334 kts 54°
2026-05-07 17:07 43.19078 9.72231 10314 ft 328 kts 54°
2026-05-07 17:07 43.20400 9.74708 10189 ft 316 kts 54°
2026-05-07 17:07 43.21675 9.77102 10072 ft 306 kts 54°
2026-05-07 17:08 43.22912 9.79422 9890 ft 298 kts 54°
2026-05-07 17:08 43.24134 9.81712 9578 ft 296 kts 54°
2026-05-07 17:08 43.25341 9.83971 9237 ft 294 kts 53°
2026-05-07 17:08 43.26540 9.86232 8901 ft 292 kts 54°
2026-05-07 17:09 43.27729 9.88476 8567 ft 289 kts 54°
2026-05-07 17:09 43.28889 9.90667 8382 ft 283 kts 54°
2026-05-07 17:09 43.30043 9.92847 8251 ft 274 kts 54°
2026-05-07 17:09 43.31129 9.94897 8125 ft 266 kts 54°
2026-05-07 17:10 43.32203 9.96921 7999 ft 257 kts 54°
2026-05-07 17:10 43.33240 9.98876 7869 ft 249 kts 54°
2026-05-07 17:10 43.34243 10.00766 7702 ft 242 kts 54°
2026-05-07 17:10 43.35229 10.02622 7435 ft 239 kts 54°
2026-05-07 17:11 43.36208 10.04459 7141 ft 238 kts 54°
2026-05-07 17:11 43.37182 10.06284 6888 ft 235 kts 54°
2026-05-07 17:11 43.38142 10.08079 6650 ft 231 kts 54°
2026-05-07 17:11 43.39153 10.09772 6352 ft 229 kts 37°
2026-05-07 17:12 43.40493 10.10943 6001 ft 229 kts 34°
2026-05-07 17:12 43.41791 10.12203 5680 ft 228 kts 35°
2026-05-07 17:12 43.43072 10.13482 5371 ft 227 kts 35°
2026-05-07 17:12 43.43915 10.14334 5168 ft 226 kts 36°
2026-05-07 17:13 43.45604 10.16055 4787 ft 225 kts 36°
2026-05-07 17:13 43.46856 10.17334 4480 ft 224 kts 36°
2026-05-07 17:13 43.48099 10.18605 4166 ft 223 kts 36°
2026-05-07 17:13 43.49340 10.19874 3872 ft 222 kts 36°
2026-05-07 17:14 43.51685 10.22273 3268 ft 223 kts 36°
2026-05-07 17:14 43.52929 10.23547 2987 ft 221 kts 36°
2026-05-07 17:14 43.54140 10.24788 2858 ft 213 kts 36°
2026-05-07 17:15 43.55305 10.25984 2715 ft 205 kts 35°
2026-05-07 17:15 43.56443 10.27150 2609 ft 204 kts 36°
2026-05-07 17:15 43.57196 10.27922 2468 ft 205 kts 36°
2026-05-07 17:16 43.59683 10.30478 1898 ft 187 kts 34°
2026-05-07 17:16 43.60690 10.31513 1662 ft 174 kts 34°
2026-05-07 17:16 43.61618 10.32468 1443 ft 160 kts 34°
2026-05-07 17:16 43.62487 10.33360 1234 ft 152 kts 33°
2026-05-07 17:17 43.63327 10.34224 1044 ft 150 kts 32°
2026-05-07 17:17 43.64158 10.35079 849 ft 148 kts 31°
2026-05-07 17:17 43.64968 10.35913 662 ft 145 kts 33°
2026-05-07 17:17 43.65790 10.36758 434 ft 146 kts 33°
2026-05-07 17:18 43.66596 10.37584 247 ft 143 kts 33°
2026-05-07 17:18 43.67382 10.38400 87 ft 149 kts 33°
2026-05-07 17:18 43.68266 10.39320 724 ft 161 kts 33°
2026-05-07 17:18 43.69196 10.40159 1629 ft 160 kts 17°
2026-05-07 17:19 43.70299 10.40033 1920 ft 174 kts 326°
2026-05-07 17:19 43.70996 10.38584 1999 ft 198 kts 278°
2026-05-07 17:19 43.70836 10.36680 2006 ft 205 kts 251°
2026-05-07 17:19 43.70341 10.34803 2006 ft 209 kts 252°
2026-05-07 17:20 43.69877 10.32903 2010 ft 208 kts 251°
2026-05-07 17:20 43.69074 10.31262 2008 ft 209 kts 225°
2026-05-07 17:20 43.67957 10.29958 1999 ft 211 kts 221°
2026-05-07 17:20 43.66805 10.28710 1999 ft 210 kts 220°
2026-05-07 17:21 43.65648 10.27482 1997 ft 209 kts 220°
2026-05-07 17:21 43.64497 10.26262 1997 ft 208 kts 220°
2026-05-07 17:21 43.63351 10.25031 1999 ft 210 kts 220°
2026-05-07 17:21 43.62208 10.23794 1998 ft 209 kts 220°
2026-05-07 17:22 43.61053 10.22553 1998 ft 210 kts 219°
2026-05-07 17:22 43.59894 10.21318 1994 ft 210 kts 219°
2026-05-07 17:22 43.58607 10.20377 1992 ft 213 kts 193°
2026-05-07 17:22 43.57142 10.20583 1995 ft 218 kts 157°
2026-05-07 17:23 43.55976 10.21924 1997 ft 222 kts 123°
2026-05-07 17:23 43.55478 10.23861 1989 ft 210 kts 92°
2026-05-07 17:23 43.55722 10.25798 1994 ft 204 kts 63°
2026-05-07 17:23 43.56578 10.27295 1995 ft 199 kts 35°
2026-05-07 17:24 43.57689 10.28437 1993 ft 200 kts 34°
2026-05-07 17:24 43.58801 10.29572 1989 ft 196 kts 34°
2026-05-07 17:24 43.59834 10.30633 1830 ft 180 kts 34°
2026-05-07 17:24 43.60789 10.31615 1635 ft 163 kts 33°
2026-05-07 17:25 43.61670 10.32521 1431 ft 155 kts 32°
2026-05-07 17:25 43.62517 10.33392 1231 ft 149 kts 33°
2026-05-07 17:25 43.63347 10.34243 1039 ft 148 kts 33°
2026-05-07 17:25 43.64172 10.35092 849 ft 147 kts 31°
2026-05-07 17:26 43.64989 10.35929 662 ft 145 kts 33°
2026-05-07 17:26 43.65804 10.36759 423 ft 145 kts 33°
2026-05-07 17:26 43.66602 10.37586 200 ft 142 kts 33°
2026-05-07 17:26 43.67394 10.38404 31 ft 142 kts 33°
2026-05-07 17:27 43.68221 10.39249 10 ft 170 kts 37°
2026-05-07 17:27 43.69286 10.40356 209 ft 207 kts 37°
2026-05-07 17:27 43.70511 10.41546 993 ft 223 kts 24°
2026-05-07 17:27 43.72039 10.41846 1693 ft 214 kts 346°
2026-05-07 17:28 43.73284 10.41069 1944 ft 194 kts 314°
2026-05-07 17:28 43.73916 10.39505 2002 ft 188 kts 277°
2026-05-07 17:28 43.73683 10.37764 2009 ft 188 kts 242°
2026-05-07 17:28 43.73032 10.36183 2006 ft 191 kts 243°
2026-05-07 17:29 43.72412 10.34559 2010 ft 192 kts 244°
2026-05-07 17:29 43.71762 10.33044 2012 ft 192 kts 234°
2026-05-07 17:29 43.71496 10.32577 2014 ft 192 kts 232°
2026-05-07 17:30 43.70600 10.31175 2010 ft 193 kts 229°
2026-05-07 17:30 43.69690 10.29804 2008 ft 193 kts 229°
2026-05-07 17:30 43.68699 10.28559 2004 ft 194 kts 220°
2026-05-07 17:30 43.67630 10.27427 2002 ft 194 kts 219°
2026-05-07 17:31 43.66548 10.26319 2004 ft 194 kts 219°
2026-05-07 17:31 43.65469 10.25205 2001 ft 193 kts 219°
2026-05-07 17:31 43.64395 10.24096 2001 ft 193 kts 219°
2026-05-07 17:31 43.63321 10.22996 2000 ft 192 kts 219°
2026-05-07 17:32 43.62242 10.21891 2001 ft 194 kts 219°
2026-05-07 17:32 43.61165 10.20770 1997 ft 194 kts 219°
2026-05-07 17:32 43.60043 10.19746 1988 ft 196 kts 201°
2026-05-07 17:32 43.58696 10.19664 1996 ft 199 kts 162°
2026-05-07 17:33 43.57550 10.20711 2004 ft 201 kts 135°
2026-05-07 17:33 43.56643 10.22214 1993 ft 206 kts 120°
2026-05-07 17:33 43.56174 10.24066 1998 ft 205 kts 94°
2026-05-07 17:33 43.56312 10.25999 1999 ft 203 kts 68°
2026-05-07 17:34 43.57022 10.27656 2000 ft 202 kts 44°
2026-05-07 17:34 43.58144 10.28780 1997 ft 200 kts 30°
2026-05-07 17:34 43.59253 10.29947 1938 ft 201 kts 36°
2026-05-07 17:34 43.60333 10.31120 1768 ft 190 kts 35°
2026-05-07 17:35 43.61350 10.32185 1511 ft 177 kts 34°
2026-05-07 17:35 43.62293 10.33160 1285 ft 162 kts 33°
2026-05-07 17:35 43.63163 10.34056 1084 ft 152 kts 32°
2026-05-07 17:35 43.63999 10.34916 887 ft 148 kts 31°
2026-05-07 17:36 43.64816 10.35756 689 ft 144 kts 33°
2026-05-07 17:36 43.65621 10.36584 469 ft 144 kts 33°
2026-05-07 17:36 43.66413 10.37402 272 ft 140 kts 33°
2026-05-07 17:36 43.67196 10.38205 91 ft 140 kts 32°
2026-05-07 17:37 43.67962 10.38989 8 ft 126 kts 37°
2026-05-07 17:37 43.68568 10.39619 8 ft 91 kts 37°
2026-05-07 17:37 43.68983 10.40048 8 ft 54 kts 37°
2026-05-07 17:37 43.69170 10.40241 8 ft 30 kts 37°
2026-05-07 17:38 43.69288 10.40273 9 ft 17 kts 314°
2026-05-07 17:38 43.69361 10.40145 11 ft 18 kts 306°
2026-05-07 17:38 43.69462 10.40087 11 ft 17 kts 353°
2026-05-07 17:38 43.69584 10.40067 11 ft 13 kts 353°
2026-05-07 17:39 43.69662 10.40055 11 ft 12 kts
2026-05-07 17:39 43.69722 10.40085 11 ft 6 kts
2026-05-07 17:39 43.69758 10.40093 11 ft 0 kts
2026-05-07 17:39 43.69762 10.40094 11 ft 0 kts